{"data":{"norad_id":59785,"epoch":"2026-05-24T23:40:05.337696Z","epoch_age_seconds":76476,"freshness":"FRESH","line1":"1 59785U 24093D   26144.98617289  .00000325  00000+0  21325-4 0  9995","line2":"2 59785  43.0011 134.5832 0001252 271.9375  88.1333 15.27574753114407","mean_motion":15.27574753,"eccentricity":0.0001252,"inclination_deg":43.0011,"raan_deg":134.5832,"arg_perigee_deg":271.9375,"mean_anomaly_deg":88.1333,"bstar":2.1325e-5,"rev_number":11440,"period_min":94.267072506402,"perigee_km":482.20578502392,"apogee_km":483.92382995652,"semimajor_km":6861.2018074902,"source":"CELESTRAK","updated_at":"2026-05-25T13:38:19.080646Z"}}